Sigfox identifier Datetime Temperature Humidity SNR
003C5A97 2019-02-20 14:07:43 20.8 21 25
003C5A97 2019-02-20 13:35:01 20.8 22 25.1
003C5A97 2019-02-20 13:03:01 20.8 24 24.6
003C5A97 2019-02-20 12:31:01 20.7 24 24.1
003C5A97 2019-02-20 11:59:00 20.7 25 24.3
003C5A97 2019-02-20 11:27:01 20.7 26 23.7
003C5A97 2019-02-20 10:55:01 20.7 27 23.1
003C5A97 2019-02-20 10:23:02 20.7 27 23
003C5A97 2019-02-20 09:51:02 20.6 27 23.1
003C5A97 2019-02-20 09:19:03 20.6 27 22.4
003C5A97 2019-02-20 08:47:03 20.5 27 21.5
003C5A97 2019-02-20 08:15:04 20.5 27 21.6
003C5A97 2019-02-20 07:43:04 20.6 27 21.7
003C5A97 2019-02-20 07:11:06 20.6 27 21.7
003C5A97 2019-02-20 06:39:07 20.6 27 21.9
003C5A97 2019-02-20 06:07:08 20.6 27 21.8
003C5A97 2019-02-20 05:35:08 20.6 27 21.7
003C5A97 2019-02-20 05:03:08 20.6 27 21.6
003C5A97 2019-02-20 04:31:08 20.6 27 21.5
003C5A97 2019-02-20 03:59:07 20.6 27 21.3
003C5A97 2019-02-20 03:27:07 20.6 27 21.1
003C5A97 2019-02-20 02:55:07 20.7 27 21
003C5A97 2019-02-20 02:23:07 20.6 27 20.8
003C5A97 2019-02-20 01:51:07 20.7 27 20.7
003C5A97 2019-02-20 01:19:08 20.7 27 21.9
003C5A97 2019-02-20 00:47:09 20.6 27 21.8
003C5A97 2019-02-20 00:15:10 20.7 27 21.6
003C5A97 2019-02-19 23:43:11 20.7 27 22.4
003C5A97 2019-02-19 23:11:11 20.7 27 22.2
003C5A97 2019-02-19 22:39:12 20.7 27 22.1
003C5A97 2019-02-19 22:07:12 20.7 27 21.9
003C5A97 2019-02-19 21:35:13 20.7 27 21.8
003C5A97 2019-02-19 21:03:14 20.7 27 21.8
003C5A97 2019-02-19 20:31:14 20.7 27 21.7
003C5A97 2019-02-19 19:59:15 20.8 27 21.4
003C5A97 2019-02-19 19:27:17 20.8 27 21.2
003C5A97 2019-02-19 18:55:19 20.9 27 21.1
003C5A97 2019-02-19 18:23:20 20.9 27 21
003C5A97 2019-02-19 17:51:22 21 27 21.1
003C5A97 2019-02-19 17:19:23 21 27 20.9
003C5A97 2019-02-19 16:47:23 21 28 20.8
003C5A97 2019-02-19 16:15:23 21 28 20.7
003C5A97 2019-02-19 15:43:25 20.9 27 20.7
003C5A97 2019-02-19 15:11:23 21 27 20.7
003C5A97 2019-02-19 14:39:25 21 28 20.6
003C5A97 2019-02-19 13:03:22 20.9 27 20.6
003C5A97 2019-02-19 12:31:22 20.9 27 20.7
003C5A97 2019-02-19 11:59:22 21 27 20.7
003C5A97 2019-02-19 11:27:25 20.9 27 20.7
003C5A97 2019-02-19 10:54:42 20.9 27 18.9
003C5A97 2019-02-19 10:22:43 20.8 27 18.9
003C5A97 2019-02-19 09:50:44 20.7 26 18.9
003C5A97 2019-02-19 09:18:45 20.7 26 15.9
003C5A97 2019-02-19 08:46:47 20.7 26 16.3
003C5A97 2019-02-19 08:14:51 20.6 26 16.2
003C5A97 2019-02-19 07:42:51 20.6 25 16.3
003C5A97 2019-02-19 07:10:55 20.6 25 16.4
003C5A97 2019-02-19 06:38:54 20.6 25 16
003C5A97 2019-02-19 06:06:56 20.6 25 15.9
003C5A97 2019-02-19 05:34:55 20.6 25 15.8
003C5A97 2019-02-19 05:02:58 20.6 25 18.9
003C5A97 2019-02-19 04:31:01 20.6 25 18.9
003C5A97 2019-02-19 03:59:01 20.6 25 18.9
003C5A97 2019-02-19 03:26:59 20.6 24 19.3
003C5A97 2019-02-19 02:54:58 20.6 24 19.3
003C5A97 2019-02-19 02:22:58 20.6 24 19.9
003C5A97 2019-02-19 01:50:59 20.6 24 19.9
003C5A97 2019-02-19 01:19:00 20.7 24 19.8
003C5A97 2019-02-19 00:47:02 20.7 24 21.2
003C5A97 2019-02-19 00:15:06 20.6 24 21.3
003C5A97 2019-02-18 23:43:03 20.7 23 21.6
003C5A97 2019-02-18 23:11:03 20.7 23 21.8
003C5A97 2019-02-18 22:39:06 20.7 23 22.1
003C5A97 2019-02-18 22:07:10 20.7 23 22.2
003C5A97 2019-02-18 21:35:10 20.7 23 22.5
003C5A97 2019-02-18 21:03:13 20.7 23 22.7
003C5A97 2019-02-18 20:31:15 20.7 23 22.8
003C5A97 2019-02-18 19:59:16 20.7 22 23
003C5A97 2019-02-18 18:55:18 20.8 22 23.1
003C5A97 2019-02-18 18:23:17 20.8 22 23.5
003C5A97 2019-02-18 17:51:17 20.9 22 23.6
003C5A97 2019-02-18 17:19:20 20.9 22 23.7
003C5A97 2019-02-18 16:47:18 20.9 22 23.8
003C5A97 2019-02-18 16:15:19 20.9 22 23.9
003C5A97 2019-02-18 15:43:20 21 21 24.1
003C5A97 2019-02-18 15:11:22 21 21 23.6
003C5A97 2019-02-18 14:07:24 21.1 21 23.7
003C5A97 2019-02-18 13:35:25 21.2 20 23.8
003C5A97 2019-02-18 13:03:28 21.4 20 23.9
003C5A97 2019-02-18 12:31:27 21.5 19 24
003C5A97 2019-02-18 11:59:28 21.5 19 24
003C5A97 2019-02-18 11:27:29 21.4 19 24.1
003C5A97 2019-02-18 10:55:29 21.3 19 24.3
003C5A97 2019-02-18 10:23:30 21.3 19 24.3
003C5A97 2019-02-18 09:51:30 21.2 19 24.5
003C5A97 2019-02-18 09:19:31 21.2 19 24.5
003C5A97 2019-02-18 08:47:33 21.1 18 24.6
003C5A97 2019-02-18 08:14:53 21 18 24.6
003C5A97 2019-02-18 07:42:53 21 18 24.7
003C5A97 2019-02-18 07:10:54 20.9 18 24.7
003C5A97 2019-02-18 06:38:55 20.9 18 24.7
003C5A97 2019-02-18 06:06:55 20.9 18 24.9
003C5A97 2019-02-18 05:34:56 20.9 18 24.9
003C5A97 2019-02-18 05:02:57 20.9 18 24.9
003C5A97 2019-02-18 04:30:57 20.9 18 24.9
003C5A97 2019-02-18 03:58:57 20.9 18 24.9
003C5A97 2019-02-18 03:26:57 20.9 18 25
003C5A97 2019-02-18 02:54:58 20.9 18 25.1
003C5A97 2019-02-18 02:22:58 20.9 18 25.2
003C5A97 2019-02-18 01:51:00 21 18 25.3
003C5A97 2019-02-18 01:19:01 21 18 25.3
003C5A97 2019-02-18 00:47:02 21 19 25.3
003C5A97 2019-02-18 00:15:03 21 18 25.2
003C5A97 2019-02-17 23:43:04 21 19 25.2
003C5A97 2019-02-17 23:11:06 21 19 25.1
003C5A97 2019-02-17 22:39:07 21 19 25.1
003C5A97 2019-02-17 22:07:07 21 19 25.1
003C5A97 2019-02-17 21:35:07 21 19 25.1
003C5A97 2019-02-17 21:03:08 21 19 24.8
003C5A97 2019-02-17 20:31:09 21 19 24.9
003C5A97 2019-02-17 19:59:09 21 19 24.9
003C5A97 2019-02-17 19:27:08 21.1 19 24.8
003C5A97 2019-02-17 18:55:05 21.1 20 24.8
003C5A97 2019-02-17 18:23:01 21.1 19 25
003C5A97 2019-02-17 17:50:56 21.1 19 24.9
003C5A97 2019-02-17 17:18:53 21.1 19 25
003C5A97 2019-02-17 16:46:49 21.2 19 24.8
003C5A97 2019-02-17 16:14:44 21.2 19 24.8
003C5A97 2019-02-17 15:42:40 21.2 20 24.8
003C5A97 2019-02-17 15:10:35 21.2 20 24.7
003C5A97 2019-02-17 14:38:32 21.2 20 24.6
003C5A97 2019-02-17 14:06:28 21.2 20 25
003C5A97 2019-02-17 13:34:24 21.2 20 24.9
003C5A97 2019-02-17 13:02:20 21.2 20 24.9
003C5A97 2019-02-17 12:30:16 21.1 20 24.9
003C5A97 2019-02-17 11:58:13 21.1 20 24.9
003C5A97 2019-02-17 11:26:08 21.1 20 24.9
003C5A97 2019-02-17 10:54:03 21.1 20 25
003C5A97 2019-02-17 10:22:00 21.1 20 25.2
003C5A97 2019-02-17 09:49:56 21 21 25.2
003C5A97 2019-02-17 09:17:52 21 21 25.3
003C5A97 2019-02-17 08:45:47 21 21 25.3
003C5A97 2019-02-17 08:13:43 21 21 25.4
003C5A97 2019-02-17 07:41:38 21 21 25.4
003C5A97 2019-02-17 07:09:33 21.1 21 25.3
003C5A97 2019-02-17 06:37:28 21.1 21 25.3
003C5A97 2019-02-17 06:05:23 21.1 21 25.3
003C5A97 2019-02-17 05:32:36 21.1 22 25.3
003C5A97 2019-02-17 05:00:30 21.1 22 25.1
003C5A97 2019-02-17 04:28:26 21.1 22 25.1
003C5A97 2019-02-17 03:56:21 21.1 22 25
003C5A97 2019-02-17 03:24:17 21.1 23 25.1
003C5A97 2019-02-17 02:52:13 21.1 23 25.2
003C5A97 2019-02-17 02:20:08 21.1 23 25.3
003C5A97 2019-02-17 01:48:04 21.1 23 25.4
003C5A97 2019-02-17 01:15:59 21.1 24 25.5
003C5A97 2019-02-17 00:43:55 21.1 24 25.2
003C5A97 2019-02-17 00:11:50 21.1 24 25.2
003C5A97 2019-02-16 23:39:46 21.1 24 25.1
003C5A97 2019-02-16 23:07:41 21.1 24 25.1
003C5A97 2019-02-16 22:35:37 21.2 24 25
003C5A97 2019-02-16 22:03:32 21.2 24 25.1
003C5A97 2019-02-16 21:31:27 21.2 24 25.1
003C5A97 2019-02-16 20:59:22 21.2 25 25
003C5A97 2019-02-16 20:27:16 21.2 25 25
003C5A97 2019-02-16 19:55:10 21.2 25 24.9
003C5A97 2019-02-16 19:23:05 21.2 25 24.9
003C5A97 2019-02-16 18:50:59 21.2 25 24.8
003C5A97 2019-02-16 18:18:53 21.2 25 24.7
003C5A97 2019-02-16 17:46:49 21.3 25 24.6
003C5A97 2019-02-16 17:14:45 21.4 25 24.7
003C5A97 2019-02-16 16:42:41 21.4 25 24.8
003C5A97 2019-02-16 16:10:36 21.4 25 24.9
003C5A97 2019-02-16 15:38:30 21.4 25 24.9
003C5A97 2019-02-16 15:06:25 21.5 25 24.9
003C5A97 2019-02-16 14:34:20 21.4 25 25
003C5A97 2019-02-16 14:02:16 21.4 25 25
003C5A97 2019-02-16 13:30:11 21.3 25 25.4
003C5A97 2019-02-16 12:58:06 21.3 25 25.3
003C5A97 2019-02-16 12:26:02 21.3 25 25.2
003C5A97 2019-02-16 11:53:57 21.2 25 25.1
003C5A97 2019-02-16 11:21:53 21.2 25 25.1
003C5A97 2019-02-16 10:49:49 21.1 25 25.1
003C5A97 2019-02-16 10:17:46 21.1 25 25
003C5A97 2019-02-16 09:45:40 21.1 25 25.1
003C5A97 2019-02-16 09:13:35 21.1 25 25.1
003C5A97 2019-02-16 08:41:32 21.1 25 24.9
003C5A97 2019-02-16 08:09:30 21.2 25 24.9
003C5A97 2019-02-16 07:37:27 21.2 25 25
003C5A97 2019-02-16 07:05:24 21.2 25 24.9
003C5A97 2019-02-16 06:33:21 21.2 25 25
003C5A97 2019-02-16 06:01:18 21.2 25 24.9
003C5A97 2019-02-16 05:29:14 21.2 25 24.8
003C5A97 2019-02-16 04:57:12 21.2 25 24.8
003C5A97 2019-02-16 04:25:09 21.2 25 25.1
003C5A97 2019-02-16 03:53:05 21.1 25 24.9
003C5A97 2019-02-16 03:21:02 21.2 25 25.2
003C5A97 2019-02-16 02:48:17 21.2 25 25.1
003C5A97 2019-02-16 02:16:14 21.2 25 25.1
003C5A97 2019-02-16 01:44:10 21.2 25 25.2
003C5A97 2019-02-16 01:12:06 21.2 25 25.1
003C5A97 2019-02-16 00:40:01 21.2 25 25.1
003C5A97 2019-02-16 00:07:55 21.3 25 24.7
003C5A97 2019-02-15 23:35:52 21.3 25 24.6
003C5A97 2019-02-15 23:03:47 21.3 25 24.5
003C5A97 2019-02-15 22:31:43 21.4 25 24.5
003C5A97 2019-02-15 21:59:38 21.4 25 24.4
003C5A97 2019-02-15 21:27:32 21.4 25 24.3
003C5A97 2019-02-15 20:55:26 21.5 25 24.3
003C5A97 2019-02-15 20:23:21 21.6 25 24.4
003C5A97 2019-02-15 19:51:17 21.6 25 24.3
003C5A97 2019-02-15 19:19:14 21.7 25 24.3
003C5A97 2019-02-15 18:47:09 21.7 25 24.2
003C5A97 2019-02-15 18:15:06 21.8 25 24.1
003C5A97 2019-02-15 17:43:02 21.8 25 24.2
003C5A97 2019-02-15 17:10:56 21.8 24 24.1
003C5A97 2019-02-15 16:38:52 21.8 24 24.3
003C5A97 2019-02-15 16:06:47 21.8 24 24.5
003C5A97 2019-02-15 15:34:42 21.8 24 24.5
003C5A97 2019-02-15 15:02:37 21.8 23 24.6
003C5A97 2019-02-15 14:30:32 21.8 23 24.8
003C5A97 2019-02-15 13:58:27 21.8 23 24.3
003C5A97 2019-02-15 13:26:23 21.7 23 24.3
003C5A97 2019-02-15 12:54:18 21.7 23 24.3
003C5A97 2019-02-15 12:22:14 21.6 24 24.2
003C5A97 2019-02-15 11:50:08 21.6 24 24.1
003C5A97 2019-02-15 11:18:04 21.5 24 24.1
003C5A97 2019-02-15 10:45:59 21.5 24 24
003C5A97 2019-02-15 10:13:54 21.5 24 24.1
003C5A97 2019-02-15 09:41:48 21.4 25 24.1
003C5A97 2019-02-15 09:09:43 21.4 25 24.1
003C5A97 2019-02-15 08:37:38 21.3 25 24.3
003C5A97 2019-02-15 08:05:32 21.3 25 24.9
003C5A97 2019-02-15 07:33:26 21.3 25 24.8
003C5A97 2019-02-15 07:01:21 21.3 25 24.7
003C5A97 2019-02-15 06:29:14 21.3 25 24.6
003C5A97 2019-02-15 05:57:10 21.3 25 24.5
003C5A97 2019-02-15 05:25:03 21.3 25 24.5
003C5A97 2019-02-15 04:52:57 21.3 25 24.6
003C5A97 2019-02-15 04:20:52 21.3 25 24.4
003C5A97 2019-02-15 03:48:46 21.3 26 24.3
003C5A97 2019-02-15 03:16:41 21.3 26 24.1
003C5A97 2019-02-15 02:44:36 21.3 26 23.8
003C5A97 2019-02-15 02:12:31 21.3 25 23.7
003C5A97 2019-02-15 01:40:25 21.3 26 22.9
003C5A97 2019-02-15 01:08:21 21.4 25 22.7
003C5A97 2019-02-15 00:36:16 21.4 25 22.5
003C5A97 2019-02-15 00:03:30 21.4 25 22.5
003C5A97 2019-02-14 23:31:27 21.4 25 22.4
003C5A97 2019-02-14 22:59:23 21.4 25 22.3
003C5A97 2019-02-14 22:27:19 21.5 25 22.4
003C5A97 2019-02-14 21:55:15 21.5 25 22.3
003C5A97 2019-02-14 21:23:10 21.5 25 22.3
003C5A97 2019-02-14 20:51:06 21.6 24 22.2
003C5A97 2019-02-14 20:19:01 21.6 24 22.3
003C5A97 2019-02-14 19:46:56 21.7 24 22.4
003C5A97 2019-02-14 19:14:53 21.8 24 22.3
003C5A97 2019-02-14 18:42:49 21.8 24 21.5
003C5A97 2019-02-14 18:10:44 21.8 24 21.7
003C5A97 2019-02-14 17:38:40 21.9 24 21.8
003C5A97 2019-02-14 17:06:35 21.9 24 22
003C5A97 2019-02-14 16:34:28 21.9 24 22.1
003C5A97 2019-02-14 16:02:23 21.9 24 22.1
003C5A97 2019-02-14 15:30:17 21.8 24 22
003C5A97 2019-02-14 14:58:12 21.7 24 22.1
003C5A97 2019-02-14 14:26:07 21.6 24 22.4
003C5A97 2019-02-14 13:54:00 21.4 24 22.7
003C5A97 2019-02-14 13:21:55 21.4 24 23.1
003C5A97 2019-02-14 12:49:50 21.3 24 23.5
003C5A97 2019-02-14 12:17:44 21.2 24 23.7
003C5A97 2019-02-14 11:45:37 21.1 24 23.9
003C5A97 2019-02-14 11:13:32 21 25 23.9
003C5A97 2019-02-14 10:41:27 20.9 24 24
003C5A97 2019-02-14 10:09:21 20.8 24 24.1
003C5A97 2019-02-14 09:37:15 20.8 24 24.1
003C5A97 2019-02-14 09:05:09 20.7 24 24.1
003C5A97 2019-02-14 08:33:04 20.7 24 24.1
003C5A97 2019-02-14 08:00:58 20.7 25 24.7
003C5A97 2019-02-14 07:28:53 20.7 25 24.7
003C5A97 2019-02-14 06:56:48 20.7 25 24.6
003C5A97 2019-02-14 06:24:43 20.7 25 24.5
003C5A97 2019-02-14 05:52:38 20.8 25 24.3
003C5A97 2019-02-14 05:20:33 20.8 25 24.2
003C5A97 2019-02-14 04:48:27 20.8 25 24.1
003C5A97 2019-02-14 04:16:22 20.8 25 24.2
003C5A97 2019-02-14 03:44:16 20.8 25 24.1
003C5A97 2019-02-14 03:12:12 20.8 25 24
003C5A97 2019-02-14 02:40:07 20.8 25 24
003C5A97 2019-02-14 02:08:02 20.8 25 23.8
003C5A97 2019-02-14 01:35:56 20.8 25 24
003C5A97 2019-02-14 01:03:51 20.8 25 23.9
003C5A97 2019-02-14 00:31:44 20.8 25 23.6
003C5A97 2019-02-13 23:59:39 20.8 25 23.3
003C5A97 2019-02-13 23:27:32 20.8 25 23.1
003C5A97 2019-02-13 22:55:24 20.9 25 22.9
003C5A97 2019-02-13 22:23:17 21 25 22.8
003C5A97 2019-02-13 21:51:13 21 25 22.8
003C5A97 2019-02-13 21:18:22 21.1 25 22.6
003C5A97 2019-02-13 20:46:16 21.1 25 22.6
003C5A97 2019-02-13 20:14:09 21.2 25 22.5
003C5A97 2019-02-13 19:42:03 21.3 25 22.3
003C5A97 2019-02-13 19:09:55 21.3 25 22.4
003C5A97 2019-02-13 18:37:46 21.3 25 21.6
003C5A97 2019-02-13 18:05:39 21.3 26 21.5
003C5A97 2019-02-13 17:33:32 21.2 25 21.4
003C5A97 2019-02-13 17:01:26 21.2 26 21.5
003C5A97 2019-02-13 16:29:20 21.1 25 21.7
003C5A97 2019-02-13 15:57:14 21.1 25 21.8
003C5A97 2019-02-13 15:25:07 21.1 25 22
003C5A97 2019-02-13 14:53:01 21.1 24 21.9
003C5A97 2019-02-13 14:20:54 21.1 24 21.9
003C5A97 2019-02-13 13:48:47 21.1 24 22.2
003C5A97 2019-02-13 13:16:40 21 24 22.4
003C5A97 2019-02-13 12:44:35 21 24 22.5
003C5A97 2019-02-13 12:12:29 21 24 22.4
003C5A97 2019-02-13 11:40:23 20.9 24 22.4
003C5A97 2019-02-13 11:08:16 20.8 23 22.4
003C5A97 2019-02-13 10:36:11 20.8 23 22.5
003C5A97 2019-02-13 10:04:05 20.7 22 22.6
003C5A97 2019-02-13 09:31:58 20.7 22 22.7
003C5A97 2019-02-13 08:59:52 20.7 21 22.6
003C5A97 2019-02-13 08:27:44 20.7 21 22.6
003C5A97 2019-02-13 07:55:36 20.7 20 22.6
003C5A97 2019-02-13 07:23:28 20.7 20 22.6
003C5A97 2019-02-13 06:51:20 20.7 20 22.5
003C5A97 2019-02-13 06:19:13 20.7 20 22.6
003C5A97 2019-02-13 05:47:06 20.7 20 22.6
003C5A97 2019-02-13 05:15:00 20.7 20 22.4
003C5A97 2019-02-13 04:42:54 20.7 20 22.4
003C5A97 2019-02-13 04:10:48 20.7 20 22.5
003C5A97 2019-02-13 03:38:40 20.8 20 22.6
003C5A97 2019-02-13 03:06:33 20.7 20 22.5
003C5A97 2019-02-13 02:34:28 20.8 19 22.3
003C5A97 2019-02-13 02:02:21 20.8 19 21.9
003C5A97 2019-02-13 01:30:14 20.8 19 21.8
003C5A97 2019-02-13 00:58:08 20.8 20 21.8
003C5A97 2019-02-13 00:26:03 20.9 20 21.9
003C5A97 2019-02-12 23:53:58 20.9 20 21.8
003C5A97 2019-02-12 23:21:53 20.9 20 21.7
003C5A97 2019-02-12 22:49:47 21 20 21.6
003C5A97 2019-02-12 22:17:41 21.1 20 22.6
003C5A97 2019-02-12 21:45:35 21.1 21 22.5
003C5A97 2019-02-12 21:13:28 21.2 21 22.3
003C5A97 2019-02-12 20:41:23 21.3 21 22.3
003C5A97 2019-02-12 20:09:17 21.4 21 22.2
003C5A97 2019-02-12 19:37:11 21.4 21 22.3
003C5A97 2019-02-12 19:05:05 21.5 20 22.2
003C5A97 2019-02-12 18:32:15 21.6 20 22.4
003C5A97 2019-02-12 18:00:09 21.7 20 22.2
003C5A97 2019-02-12 17:28:03 21.8 20 22.4
003C5A97 2019-02-12 16:55:57 21.9 20 22.4
003C5A97 2019-02-12 16:23:51 22 20 22.1
003C5A97 2019-02-12 15:51:46 22 20 22.2
003C5A97 2019-02-12 15:19:37 22 20 22.2
003C5A97 2019-02-12 14:47:30 21.9 21 22.1
003C5A97 2019-02-12 14:15:22 21.5 21 22.2
003C5A97 2019-02-12 13:43:14 21.2 21 22.2
003C5A97 2019-02-12 13:11:07 21.2 21 22.4
003C5A97 2019-02-12 12:38:59 21.2 22 23.3
003C5A97 2019-02-12 12:06:50 21.1 22 23.3
003C5A97 2019-02-12 11:34:43 21.1 22 23.3
003C5A97 2019-02-12 11:02:37 21.1 23 23.2
003C5A97 2019-02-12 10:30:30 20.9 23 23
003C5A97 2019-02-12 09:58:23 20.9 24 23.1
003C5A97 2019-02-12 09:26:16 20.8 24 23.2
003C5A97 2019-02-12 08:54:10 20.8 24 22.6
003C5A97 2019-02-12 08:22:04 20.8 25 22.9
003C5A97 2019-02-12 07:49:58 20.8 25 23.1
003C5A97 2019-02-12 07:17:52 20.8 26 23
003C5A97 2019-02-12 06:45:46 20.8 26 23.1
003C5A97 2019-02-12 06:13:39 20.8 26 23.2
003C5A97 2019-02-12 05:41:31 20.8 26 23.8
003C5A97 2019-02-12 05:09:25 20.8 26 23.8
003C5A97 2019-02-12 04:37:18 20.8 26 24
003C5A97 2019-02-12 04:05:12 20.8 27 24
003C5A97 2019-02-12 03:33:05 20.8 27 24.1
003C5A97 2019-02-12 03:00:58 20.9 27 24.3
003C5A97 2019-02-12 02:28:50 20.9 27 24.4
003C5A97 2019-02-12 01:56:45 20.9 27 24.6
003C5A97 2019-02-12 01:24:38 20.9 27 24.7
003C5A97 2019-02-12 00:52:30 20.9 27 24.7
003C5A97 2019-02-12 00:20:23 20.9 27 24.9
003C5A97 2019-02-11 23:48:16 21 27 25
003C5A97 2019-02-11 23:16:08 21.1 27 24.2
003C5A97 2019-02-11 22:44:01 21.1 27 24.4
003C5A97 2019-02-11 22:11:54 21.2 27 24.7
003C5A97 2019-02-11 21:39:47 21.2 27 24.9
003C5A97 2019-02-11 21:07:40 21.3 27 25.2
003C5A97 2019-02-11 20:35:34 21.4 27 25.5
003C5A97 2019-02-11 20:03:26 21.5 27 25.8
003C5A97 2019-02-11 19:31:17 21.6 27 25.8
003C5A97 2019-02-11 18:59:09 21.7 27 25.9
003C5A97 2019-02-11 18:27:01 21.9 27 25.9
003C5A97 2019-02-11 17:54:53 22 27 26.7
003C5A97 2019-02-11 17:22:44 22 27 27.9
003C5A97 2019-02-11 16:50:34 22.2 27 30
003C5A97 2019-02-11 16:18:23 22.1 32 0